RYR3BU EGNM-EPKK

Flight info

Callsign RYR3BU
Flight time 2h 16m
Altitude 37000
Route LAMIX3W LAMIX L603 LAMSO DCT POVEL L986 MAG DCT LASIS T714 MOFKE MOFKE2H
Aircraft B38M/M-SDE1FGHILORVWXY/HB1

Departure

Time 2026-04-30 10:06
Airport Leeds Bradford Airport (EGNM)

Arrival

Time 2026-04-30 12:23
Airport Kraków John Paul II International Airport (EPKK)
Time Latitude Longitude Altitude Speed Heading
2026-04-30 09:45 53.86878 -1.65760 667 ft 0 kts
2026-04-30 09:57 53.86860 -1.65761 667 ft 4 kts
2026-04-30 09:57 53.86837 -1.65762 667 ft 2 kts
2026-04-30 09:57 53.86816 -1.65770 664 ft 4 kts 51°
2026-04-30 09:58 53.86812 -1.65805 666 ft 4 kts 92°
2026-04-30 09:58 53.86813 -1.65851 666 ft 3 kts 92°
2026-04-30 09:58 53.86813 -1.65858 666 ft 0 kts 92°
2026-04-30 10:00 53.86813 -1.65854 668 ft 1 kts 89°
2026-04-30 10:01 53.86810 -1.65787 668 ft 4 kts 121°
2026-04-30 10:01 53.86785 -1.65761 668 ft 7 kts 158°
2026-04-30 10:01 53.86742 -1.65676 667 ft 14 kts 104°
2026-04-30 10:02 53.86664 -1.65419 664 ft 14 kts 186°
2026-04-30 10:02 53.86575 -1.65433 668 ft 11 kts 185°
2026-04-30 10:02 53.86535 -1.65436 670 ft 10 kts 182°
2026-04-30 10:03 53.86482 -1.65440 671 ft 10 kts 182°
2026-04-30 10:03 53.86427 -1.65445 675 ft 6 kts 182°
2026-04-30 10:03 53.86402 -1.65447 678 ft 2 kts 185°
2026-04-30 10:03 53.86371 -1.65451 680 ft 8 kts 185°
2026-04-30 10:04 53.86285 -1.65463 682 ft 18 kts 185°
2026-04-30 10:04 53.86160 -1.65381 676 ft 21 kts 142°
2026-04-30 10:04 53.86042 -1.65210 677 ft 25 kts 138°
2026-04-30 10:04 53.85927 -1.65014 669 ft 19 kts 112°
2026-04-30 10:05 53.85885 -1.64928 666 ft 8 kts 199°
2026-04-30 10:05 53.85886 -1.64984 666 ft 4 kts 327°
2026-04-30 10:05 53.85906 -1.65007 666 ft 3 kts 320°
2026-04-30 10:05 53.85914 -1.65018 667 ft 2 kts 320°
2026-04-30 10:06 53.86052 -1.65228 678 ft 63 kts 318°
2026-04-30 10:06 53.86574 -1.66033 670 ft 138 kts 317°
2026-04-30 10:06 53.87406 -1.67398 783 ft 187 kts 316°
2026-04-30 10:06 53.88345 -1.69047 1419 ft 205 kts 317°
2026-04-30 10:07 53.89392 -1.70917 2146 ft 225 kts 316°
2026-04-30 10:07 53.90356 -1.72990 3012 ft 237 kts 295°
2026-04-30 10:07 53.90703 -1.75772 3665 ft 244 kts 261°
2026-04-30 10:07 53.90385 -1.78593 4435 ft 249 kts 241°
2026-04-30 10:08 53.89459 -1.81035 5260 ft 243 kts 215°
2026-04-30 10:08 53.88054 -1.82549 6086 ft 240 kts 191°
2026-04-30 10:08 53.86416 -1.82914 6958 ft 236 kts 170°
2026-04-30 10:08 53.84786 -1.82235 7176 ft 242 kts 152°
2026-04-30 10:09 53.83400 -1.80646 7304 ft 243 kts 136°
2026-04-30 10:09 53.82371 -1.78387 7374 ft 245 kts 124°
2026-04-30 10:09 53.81392 -1.76046 7327 ft 243 kts 136°
2026-04-30 10:09 53.80123 -1.74104 7322 ft 243 kts 138°
2026-04-30 10:10 53.78888 -1.72211 7322 ft 243 kts 138°
2026-04-30 10:10 53.77636 -1.70284 7326 ft 243 kts 138°
2026-04-30 10:10 53.76386 -1.68353 7314 ft 243 kts 138°
2026-04-30 10:10 53.75139 -1.66424 7322 ft 243 kts 138°
2026-04-30 10:11 53.73889 -1.64489 7327 ft 245 kts 138°
2026-04-30 10:11 53.72623 -1.62528 7798 ft 246 kts 137°
2026-04-30 10:11 53.71364 -1.60583 8814 ft 246 kts 137°
2026-04-30 10:11 53.70081 -1.58602 9664 ft 253 kts 138°
2026-04-30 10:12 53.68770 -1.56577 10521 ft 258 kts 138°
2026-04-30 10:12 53.67405 -1.54471 10997 ft 276 kts 138°
2026-04-30 10:12 53.65936 -1.52207 11359 ft 297 kts 137°
2026-04-30 10:12 53.64383 -1.49815 11669 ft 317 kts 137°
2026-04-30 10:13 53.62712 -1.47245 12056 ft 332 kts 137°
2026-04-30 10:13 53.60977 -1.44579 12649 ft 339 kts 137°
2026-04-30 10:13 53.59226 -1.41892 13409 ft 343 kts 137°
2026-04-30 10:13 53.57449 -1.39168 14088 ft 348 kts 137°
2026-04-30 10:14 53.55652 -1.36418 14726 ft 351 kts 138°
2026-04-30 10:14 53.53833 -1.33636 15331 ft 355 kts 138°
2026-04-30 10:14 53.50139 -1.27978 16534 ft 363 kts 135°
2026-04-30 10:15 53.48631 -1.24553 17122 ft 369 kts 119°
2026-04-30 10:15 53.47597 -1.20585 17697 ft 374 kts 115°
2026-04-30 10:15 53.46563 -1.16548 18239 ft 377 kts 120°
2026-04-30 10:15 53.45272 -1.12702 18793 ft 380 kts 121°
2026-04-30 10:16 53.43966 -1.08822 19293 ft 384 kts 121°
2026-04-30 10:16 53.42644 -1.04915 19796 ft 387 kts 121°
2026-04-30 10:16 53.41312 -1.00982 20286 ft 390 kts 121°
2026-04-30 10:17 53.38609 -0.92991 21250 ft 397 kts 119°
2026-04-30 10:17 53.36043 -0.84793 22201 ft 403 kts 119°
2026-04-30 10:17 53.34730 -0.80631 22672 ft 406 kts 119°
2026-04-30 10:18 53.33405 -0.76443 23133 ft 409 kts 119°
2026-04-30 10:18 53.32066 -0.72221 23591 ft 412 kts 119°
2026-04-30 10:18 53.30770 -0.67929 24002 ft 416 kts 112°
2026-04-30 10:19 53.29006 -0.58650 24770 ft 421 kts 109°
2026-04-30 10:19 53.28123 -0.53974 25169 ft 423 kts 109°
2026-04-30 10:19 53.27235 -0.49275 25538 ft 425 kts 109°
2026-04-30 10:19 53.26340 -0.44549 25910 ft 428 kts 109°
2026-04-30 10:20 53.25439 -0.39801 26281 ft 430 kts 109°
2026-04-30 10:20 53.23620 -0.30254 27059 ft 433 kts 110°
2026-04-30 10:20 53.22701 -0.25450 27401 ft 435 kts 110°
2026-04-30 10:21 53.21778 -0.20634 27750 ft 437 kts 110°
2026-04-30 10:21 53.20860 -0.15859 28086 ft 439 kts 110°
2026-04-30 10:21 53.19925 -0.11006 28422 ft 441 kts 110°
2026-04-30 10:21 53.18983 -0.06132 28760 ft 443 kts 110°
2026-04-30 10:22 53.18034 -0.01231 29080 ft 445 kts 110°
2026-04-30 10:22 53.17079 0.03687 29397 ft 446 kts 110°
2026-04-30 10:22 53.16121 0.08610 29803 ft 446 kts 110°
2026-04-30 10:22 53.15162 0.13521 30280 ft 445 kts 110°
2026-04-30 10:23 53.14204 0.18416 30682 ft 443 kts 110°
2026-04-30 10:23 53.13248 0.23291 31085 ft 442 kts 110°
2026-04-30 10:23 53.12293 0.28148 31463 ft 441 kts 110°
2026-04-30 10:23 53.11338 0.32990 31857 ft 439 kts 110°
2026-04-30 10:24 53.10385 0.37810 32230 ft 438 kts 110°
2026-04-30 10:24 53.09432 0.42620 32611 ft 437 kts 110°
2026-04-30 10:24 53.08481 0.47409 32983 ft 435 kts 110°
2026-04-30 10:24 53.07530 0.52183 33342 ft 434 kts 110°
2026-04-30 10:25 53.06578 0.56957 33594 ft 436 kts 110°
2026-04-30 10:25 53.05619 0.61746 33921 ft 436 kts 110°
2026-04-30 10:25 53.04662 0.66519 34266 ft 435 kts 110°
2026-04-30 10:25 53.03706 0.71274 34567 ft 434 kts 110°
2026-04-30 10:26 53.02749 0.76021 34827 ft 434 kts 110°
2026-04-30 10:26 53.01802 0.80704 35077 ft 434 kts 110°
2026-04-30 10:26 53.00841 0.85450 35332 ft 434 kts 110°
2026-04-30 10:26 52.99878 0.90196 35596 ft 433 kts 110°
2026-04-30 10:27 52.98915 0.94931 35871 ft 432 kts 110°
2026-04-30 10:27 52.97974 0.99668 36079 ft 433 kts 106°
2026-04-30 10:27 52.97365 1.04568 36303 ft 433 kts 102°
2026-04-30 10:27 52.96791 1.09472 36518 ft 433 kts 103°
2026-04-30 10:28 52.96221 1.14383 36712 ft 434 kts 103°
2026-04-30 10:28 52.95651 1.19300 36943 ft 433 kts 103°
2026-04-30 10:28 52.95082 1.24196 37137 ft 433 kts 103°
2026-04-30 10:28 52.94510 1.29097 37313 ft 433 kts 103°
2026-04-30 10:29 52.93359 1.38912 37357 ft 432 kts 103°
2026-04-30 10:29 52.92204 1.48687 37370 ft 432 kts 103°
2026-04-30 10:30 52.91043 1.58442 37372 ft 431 kts 103°
2026-04-30 10:30 52.90074 1.66524 37377 ft 430 kts 103°
2026-04-30 10:31 52.88900 1.76252 37374 ft 430 kts 103°
2026-04-30 10:31 52.87719 1.85967 37379 ft 430 kts 103°
2026-04-30 10:32 52.86532 1.95670 37373 ft 430 kts 103°
2026-04-30 10:32 52.85336 2.05372 37387 ft 429 kts 102°
2026-04-30 10:33 52.84146 2.14951 37380 ft 427 kts 102°
2026-04-30 10:33 52.82935 2.24637 37382 ft 427 kts 103°
2026-04-30 10:34 52.81732 2.34185 37382 ft 427 kts 103°
2026-04-30 10:34 52.80517 2.43787 37384 ft 427 kts 103°
2026-04-30 10:35 52.79289 2.53391 37385 ft 427 kts 102°
2026-04-30 10:35 52.78056 2.62970 37389 ft 426 kts 102°
2026-04-30 10:36 52.76816 2.72548 37388 ft 426 kts 103°
2026-04-30 10:36 52.75569 2.82119 37392 ft 426 kts 103°
2026-04-30 10:37 52.74314 2.91676 37390 ft 426 kts 103°
2026-04-30 10:37 52.73218 3.01283 37380 ft 426 kts 94°
2026-04-30 10:38 52.72784 3.11033 37383 ft 427 kts 95°
2026-04-30 10:38 52.72344 3.20790 37382 ft 427 kts 95°
2026-04-30 10:39 52.71899 3.30548 37373 ft 426 kts 95°
2026-04-30 10:39 52.71446 3.40297 37370 ft 426 kts 95°
2026-04-30 10:40 52.70986 3.50042 37386 ft 426 kts 95°
2026-04-30 10:40 52.70520 3.59732 37381 ft 427 kts 95°
2026-04-30 10:41 52.70043 3.69490 37390 ft 427 kts 95°
2026-04-30 10:41 52.69557 3.79253 37390 ft 427 kts 95°
2026-04-30 10:42 52.69063 3.89014 37395 ft 427 kts 95°
2026-04-30 10:42 52.68562 3.98766 37393 ft 427 kts 95°
2026-04-30 10:43 52.68053 4.08521 37396 ft 428 kts 95°
2026-04-30 10:43 52.67535 4.18283 37395 ft 428 kts 95°
2026-04-30 10:44 52.67008 4.28057 37392 ft 428 kts 95°
2026-04-30 10:44 52.66473 4.37823 37395 ft 428 kts 95°
2026-04-30 10:45 52.65930 4.47588 37398 ft 428 kts 95°
2026-04-30 10:45 52.65380 4.57351 37398 ft 428 kts 95°
2026-04-30 10:46 52.64824 4.67050 37408 ft 428 kts 95°
2026-04-30 10:46 52.64258 4.76807 37404 ft 428 kts 95°
2026-04-30 10:47 52.63683 4.86555 37400 ft 428 kts 95°
2026-04-30 10:47 52.63100 4.96309 37402 ft 428 kts 95°
2026-04-30 10:48 52.62510 5.06052 37403 ft 427 kts 95°
2026-04-30 10:48 52.61913 5.15776 37413 ft 427 kts 95°
2026-04-30 10:49 52.61308 5.25499 37410 ft 427 kts 95°
2026-04-30 10:49 52.60696 5.35198 37403 ft 426 kts 95°
2026-04-30 10:50 52.60070 5.44983 37402 ft 426 kts 95°
2026-04-30 10:50 52.59446 5.54622 37411 ft 427 kts 95°
2026-04-30 10:51 52.58803 5.64407 37414 ft 427 kts 95°
2026-04-30 10:51 52.58158 5.74123 37415 ft 427 kts 95°
2026-04-30 10:52 52.57509 5.83772 37426 ft 427 kts 95°
2026-04-30 10:52 52.56848 5.93474 37423 ft 427 kts 95°
2026-04-30 10:53 52.56179 6.03173 37436 ft 427 kts 95°
2026-04-30 10:53 52.55502 6.12868 37429 ft 427 kts 95°
2026-04-30 10:54 52.54818 6.22556 37434 ft 427 kts 95°
2026-04-30 10:54 52.54125 6.32253 37432 ft 427 kts 95°
2026-04-30 10:55 52.53425 6.41937 37443 ft 427 kts 95°
2026-04-30 10:55 52.52717 6.51620 37444 ft 427 kts 95°
2026-04-30 10:56 52.51997 6.61338 37444 ft 429 kts 95°
2026-04-30 10:56 52.51269 6.71068 37441 ft 429 kts 95°
2026-04-30 10:57 52.50533 6.80796 37445 ft 430 kts 95°
2026-04-30 10:57 52.49788 6.90523 37449 ft 430 kts 95°
2026-04-30 10:58 52.49036 7.00246 37459 ft 430 kts 95°
2026-04-30 10:58 52.48274 7.09989 37457 ft 430 kts 95°
2026-04-30 10:59 52.47504 7.19721 37462 ft 430 kts 95°
2026-04-30 10:59 52.46727 7.29454 37461 ft 430 kts 95°
2026-04-30 11:00 52.45941 7.39181 37468 ft 430 kts 95°
2026-04-30 11:00 52.45148 7.48898 37477 ft 430 kts 95°
2026-04-30 11:01 52.44344 7.58646 37465 ft 431 kts 95°
2026-04-30 11:01 52.43538 7.68318 37463 ft 431 kts 95°
2026-04-30 11:02 52.42719 7.78053 37469 ft 431 kts 95°
2026-04-30 11:02 52.41891 7.87786 37471 ft 431 kts 95°
2026-04-30 11:03 52.41056 7.97517 37500 ft 431 kts 95°
2026-04-30 11:04 52.39788 8.12105 37494 ft 432 kts 95°
2026-04-30 11:04 52.38931 8.21836 37498 ft 431 kts 95°
2026-04-30 11:05 52.38068 8.31549 37497 ft 431 kts 95°
2026-04-30 11:05 52.37196 8.41270 37496 ft 432 kts 95°
2026-04-30 11:06 52.36321 8.50931 37487 ft 432 kts 95°
2026-04-30 11:06 52.35426 8.60722 37480 ft 432 kts 95°
2026-04-30 11:07 52.34528 8.70449 37480 ft 432 kts 95°
2026-04-30 11:07 52.33629 8.80104 37479 ft 432 kts 95°
2026-04-30 11:08 52.32715 8.89827 37481 ft 432 kts 95°
2026-04-30 11:08 52.31793 8.99548 37483 ft 433 kts 95°
2026-04-30 11:09 52.30863 9.09259 37487 ft 433 kts 95°
2026-04-30 11:09 52.29925 9.18975 37485 ft 433 kts 95°
2026-04-30 11:10 52.28979 9.28678 37483 ft 433 kts 95°
2026-04-30 11:10 52.28025 9.38381 37501 ft 433 kts 95°
2026-04-30 11:11 52.27064 9.48081 37505 ft 433 kts 95°
2026-04-30 11:11 52.26094 9.57778 37494 ft 433 kts 96°
2026-04-30 11:12 52.25281 9.65836 37493 ft 433 kts 96°
2026-04-30 11:12 52.24297 9.75528 37497 ft 433 kts 96°
2026-04-30 11:13 52.23142 9.86786 37491 ft 433 kts 96°
2026-04-30 11:13 52.22303 9.94904 37493 ft 433 kts 95°
2026-04-30 11:14 52.21295 10.04576 37490 ft 433 kts 96°
2026-04-30 11:14 52.20281 10.14248 37481 ft 433 kts 96°
2026-04-30 11:15 52.19253 10.23984 37484 ft 433 kts 96°
2026-04-30 11:15 52.18225 10.33653 37499 ft 433 kts 96°
2026-04-30 11:16 52.17187 10.43326 37512 ft 433 kts 96°
2026-04-30 11:16 52.16143 10.52995 37504 ft 434 kts 96°
2026-04-30 11:17 52.15097 10.62605 37502 ft 434 kts 96°
2026-04-30 11:17 52.14035 10.72286 37496 ft 434 kts 96°
2026-04-30 11:18 52.12954 10.81950 37493 ft 435 kts 98°
2026-04-30 11:18 52.10968 10.96445 37492 ft 435 kts 97°
2026-04-30 11:19 52.09677 11.06055 37495 ft 435 kts 97°
2026-04-30 11:19 52.08380 11.15660 37491 ft 435 kts 97°
2026-04-30 11:20 52.07084 11.25190 37495 ft 435 kts 97°
2026-04-30 11:20 52.05762 11.34849 37524 ft 435 kts 97°
2026-04-30 11:21 52.04438 11.44374 37492 ft 434 kts 97°
2026-04-30 11:21 52.03100 11.53952 37507 ft 435 kts 97°
2026-04-30 11:22 52.01754 11.63528 37499 ft 435 kts 97°
2026-04-30 11:22 52.00401 11.73089 37499 ft 435 kts 97°
2026-04-30 11:23 51.98906 11.82620 37533 ft 437 kts 100°
2026-04-30 11:24 51.96460 11.96841 37499 ft 436 kts 99°
2026-04-30 11:24 51.94830 12.06324 37497 ft 437 kts 99°
2026-04-30 11:25 51.92371 12.20534 37491 ft 436 kts 100°
2026-04-30 11:26 51.89068 12.39441 37485 ft 436 kts 99°
2026-04-30 11:26 51.87417 12.48822 37488 ft 436 kts 99°
2026-04-30 11:27 51.85744 12.58269 37486 ft 436 kts 99°
2026-04-30 11:27 51.84066 12.67702 37488 ft 436 kts 99°
2026-04-30 11:28 51.81536 12.81829 37488 ft 435 kts 99°
2026-04-30 11:29 51.79843 12.91222 37488 ft 436 kts 99°
2026-04-30 11:29 51.77286 13.05315 37487 ft 436 kts 99°
2026-04-30 11:30 51.74725 13.19323 37508 ft 436 kts 99°
2026-04-30 11:31 51.73001 13.28692 37505 ft 435 kts 99°
2026-04-30 11:31 51.71272 13.38042 37505 ft 435 kts 99°
2026-04-30 11:32 51.69536 13.47384 37488 ft 435 kts 99°
2026-04-30 11:32 51.67789 13.56737 37486 ft 435 kts 99°
2026-04-30 11:33 51.65155 13.70752 37499 ft 435 kts 99°
2026-04-30 11:33 51.63393 13.80067 37495 ft 435 kts 99°
2026-04-30 11:34 51.61623 13.89380 37486 ft 435 kts 99°
2026-04-30 11:34 51.59844 13.98689 37486 ft 435 kts 99°
2026-04-30 11:35 51.58068 14.07942 37487 ft 435 kts 99°
2026-04-30 11:35 51.56273 14.17249 37479 ft 435 kts 100°
2026-04-30 11:36 51.54471 14.26542 37482 ft 436 kts 100°
2026-04-30 11:36 51.52662 14.35829 37476 ft 436 kts 100°
2026-04-30 11:37 51.50845 14.45113 37482 ft 436 kts 100°
2026-04-30 11:37 51.49021 14.54390 37491 ft 436 kts 100°
2026-04-30 11:38 51.47189 14.63660 37477 ft 436 kts 100°
2026-04-30 11:38 51.45352 14.72923 37479 ft 436 kts 100°
2026-04-30 11:39 51.43507 14.82185 37479 ft 436 kts 100°
2026-04-30 11:39 51.41657 14.91437 37473 ft 436 kts 100°
2026-04-30 11:40 51.39487 15.00558 37525 ft 441 kts 105°
2026-04-30 11:40 51.37121 15.09628 37469 ft 441 kts 104°
2026-04-30 11:41 51.34780 15.18703 37474 ft 441 kts 104°
2026-04-30 11:41 51.32438 15.27767 37468 ft 441 kts 105°
2026-04-30 11:42 51.30104 15.36763 37471 ft 441 kts 105°
2026-04-30 11:42 51.27730 15.45878 37504 ft 442 kts 105°
2026-04-30 11:43 51.25360 15.54943 37473 ft 442 kts 105°
2026-04-30 11:43 51.22984 15.63996 37470 ft 442 kts 105°
2026-04-30 11:44 51.20599 15.73043 37469 ft 442 kts 105°
2026-04-30 11:44 51.18209 15.82080 37471 ft 443 kts 105°
2026-04-30 11:45 51.15855 15.91138 37479 ft 443 kts 104°
2026-04-30 11:45 51.13529 16.00159 37467 ft 443 kts 104°
2026-04-30 11:46 51.11176 16.09240 37466 ft 443 kts 104°
2026-04-30 11:46 51.08800 16.18372 37469 ft 444 kts 104°
2026-04-30 11:47 51.06433 16.27437 37464 ft 444 kts 105°
2026-04-30 11:47 51.04051 16.36518 37470 ft 445 kts 105°
2026-04-30 11:48 51.01662 16.45596 37463 ft 445 kts 105°
2026-04-30 11:48 50.99284 16.54599 37461 ft 445 kts 105°
2026-04-30 11:49 50.96881 16.63664 37460 ft 445 kts 105°
2026-04-30 11:49 50.94472 16.72716 37495 ft 446 kts 105°
2026-04-30 11:50 50.92047 16.81796 37458 ft 447 kts 105°
2026-04-30 11:50 50.89612 16.90871 37456 ft 447 kts 105°
2026-04-30 11:51 50.87171 16.99938 37456 ft 447 kts 105°
2026-04-30 11:51 50.85139 17.07461 37454 ft 447 kts 105°
2026-04-30 11:52 50.82669 17.16493 37342 ft 446 kts 106°
2026-04-30 11:52 50.81428 17.21008 36399 ft 450 kts 105°
2026-04-30 11:52 50.80186 17.25508 35950 ft 442 kts 105°
2026-04-30 11:53 50.78949 17.29985 35437 ft 437 kts 104°
2026-04-30 11:53 50.77735 17.34377 34833 ft 433 kts 104°
2026-04-30 11:53 50.76535 17.38700 34417 ft 426 kts 103°
2026-04-30 11:53 50.75344 17.42990 33358 ft 430 kts 103°
2026-04-30 11:54 50.74141 17.47310 32708 ft 426 kts 103°
2026-04-30 11:54 50.72948 17.51642 32010 ft 424 kts 103°
2026-04-30 11:54 50.71780 17.55913 31292 ft 424 kts 103°
2026-04-30 11:54 50.70604 17.60198 30467 ft 427 kts 103°
2026-04-30 11:55 50.69419 17.64505 29451 ft 430 kts 104°
2026-04-30 11:55 50.68220 17.68848 28394 ft 434 kts 105°
2026-04-30 11:55 50.67009 17.73235 27416 ft 437 kts 105°
2026-04-30 11:55 50.65806 17.77578 27047 ft 426 kts 105°
2026-04-30 11:56 50.64623 17.81853 26624 ft 430 kts 105°
2026-04-30 11:56 50.63407 17.86237 26150 ft 442 kts 106°
2026-04-30 11:56 50.62163 17.90701 25699 ft 446 kts 107°
2026-04-30 11:56 50.60880 17.95165 25243 ft 449 kts 109°
2026-04-30 11:57 50.59557 17.99613 24770 ft 444 kts 104°
2026-04-30 11:57 50.58877 18.04249 24230 ft 430 kts 90°
2026-04-30 11:57 50.58608 18.08863 23647 ft 428 kts 89°
2026-04-30 11:57 50.58398 18.13520 23240 ft 426 kts 88°
2026-04-30 11:58 50.58223 18.18162 22865 ft 424 kts 88°
2026-04-30 11:58 50.58063 18.22835 22509 ft 421 kts 88°
2026-04-30 11:58 50.57918 18.27369 22170 ft 419 kts 88°
2026-04-30 11:58 50.57775 18.31941 21839 ft 418 kts 88°
2026-04-30 11:59 50.57632 18.36508 21512 ft 416 kts 88°
2026-04-30 11:59 50.57490 18.41024 21200 ft 414 kts 88°
2026-04-30 11:59 50.57332 18.45538 21112 ft 410 kts 88°
2026-04-30 11:59 50.57170 18.49921 21010 ft 393 kts 88°
2026-04-30 12:00 50.57015 18.54151 20730 ft 383 kts 88°
2026-04-30 12:00 50.56860 18.58339 20454 ft 373 kts 88°
2026-04-30 12:00 50.56715 18.62220 20195 ft 365 kts 88°
2026-04-30 12:00 50.56567 18.66155 19928 ft 357 kts 88°
2026-04-30 12:01 50.56420 18.70016 19668 ft 350 kts 88°
2026-04-30 12:01 50.56386 18.73831 19369 ft 341 kts 83°
2026-04-30 12:01 50.56417 18.77543 19120 ft 334 kts 84°
2026-04-30 12:01 50.56437 18.81135 18885 ft 327 kts 84°
2026-04-30 12:02 50.56451 18.84683 18629 ft 321 kts 84°
2026-04-30 12:02 50.56461 18.88168 18384 ft 315 kts 84°
2026-04-30 12:02 50.56468 18.91580 18168 ft 308 kts 84°
2026-04-30 12:02 50.56475 18.94920 17926 ft 302 kts 84°
2026-04-30 12:03 50.56480 18.98187 17690 ft 296 kts 84°
2026-04-30 12:03 50.56488 19.04664 17252 ft 297 kts 84°
2026-04-30 12:03 50.56490 19.07904 17038 ft 296 kts 84°
2026-04-30 12:04 50.56492 19.11143 16824 ft 296 kts 84°
2026-04-30 12:04 50.56479 19.14375 16586 ft 295 kts 84°
2026-04-30 12:04 50.56464 19.17607 16387 ft 294 kts 84°
2026-04-30 12:04 50.56449 19.20819 16181 ft 294 kts 85°
2026-04-30 12:05 50.56434 19.24036 15971 ft 294 kts 85°
2026-04-30 12:05 50.56418 19.27244 15762 ft 293 kts 85°
2026-04-30 12:05 50.56400 19.30446 15549 ft 293 kts 85°
2026-04-30 12:05 50.56383 19.33603 15344 ft 292 kts 85°
2026-04-30 12:06 50.56364 19.36798 15131 ft 292 kts 85°
2026-04-30 12:06 50.56344 19.40026 14915 ft 291 kts 85°
2026-04-30 12:06 50.56324 19.43172 14719 ft 291 kts 85°
2026-04-30 12:06 50.56302 19.46354 14505 ft 291 kts 85°
2026-04-30 12:07 50.56280 19.49573 14288 ft 290 kts 85°
2026-04-30 12:07 50.56257 19.52742 14045 ft 290 kts 85°
2026-04-30 12:07 50.56233 19.55904 13833 ft 289 kts 85°
2026-04-30 12:07 50.56209 19.59061 13616 ft 288 kts 86°
2026-04-30 12:08 50.56173 19.62203 13424 ft 287 kts 89°
2026-04-30 12:08 50.55635 19.65250 13163 ft 296 kts 114°
2026-04-30 12:08 50.54460 19.67943 12954 ft 301 kts 121°
2026-04-30 12:08 50.53232 19.70604 12726 ft 301 kts 121°
2026-04-30 12:09 50.51997 19.73250 12475 ft 299 kts 121°
2026-04-30 12:09 50.50762 19.75876 12256 ft 298 kts 121°
2026-04-30 12:09 50.49529 19.78487 12017 ft 297 kts 121°
2026-04-30 12:09 50.48301 19.81078 11781 ft 296 kts 122°
2026-04-30 12:10 50.47072 19.83667 11571 ft 295 kts 122°
2026-04-30 12:10 50.45862 19.86213 11334 ft 294 kts 122°
2026-04-30 12:10 50.44641 19.88778 11080 ft 293 kts 122°
2026-04-30 12:10 50.43421 19.91340 10865 ft 292 kts 122°
2026-04-30 12:11 50.42213 19.93874 10625 ft 288 kts 122°
2026-04-30 12:11 50.41023 19.96367 10393 ft 283 kts 122°
2026-04-30 12:11 50.39852 19.98819 10155 ft 278 kts 122°
2026-04-30 12:11 50.38701 20.01227 9935 ft 275 kts 122°
2026-04-30 12:12 50.37551 20.03628 9726 ft 275 kts 122°
2026-04-30 12:12 50.36402 20.06028 9493 ft 275 kts 122°
2026-04-30 12:12 50.35254 20.08422 9277 ft 274 kts 122°
2026-04-30 12:12 50.34109 20.10809 9072 ft 274 kts 123°
2026-04-30 12:13 50.32965 20.13190 8849 ft 273 kts 123°
2026-04-30 12:13 50.31825 20.15561 8641 ft 273 kts 123°
2026-04-30 12:13 50.30684 20.17933 8427 ft 273 kts 123°
2026-04-30 12:13 50.29544 20.20301 8220 ft 272 kts 124°
2026-04-30 12:14 50.28426 20.22621 7997 ft 268 kts 124°
2026-04-30 12:14 50.27312 20.24930 7784 ft 264 kts 124°
2026-04-30 12:14 50.26202 20.27227 7561 ft 259 kts 124°
2026-04-30 12:14 50.25129 20.29450 7365 ft 254 kts 124°
2026-04-30 12:15 50.23866 20.31326 7124 ft 253 kts 151°
2026-04-30 12:15 50.22209 20.32165 6905 ft 249 kts 167°
2026-04-30 12:15 50.20517 20.32752 6604 ft 250 kts 167°
2026-04-30 12:15 50.18808 20.33318 6222 ft 252 kts 172°
2026-04-30 12:16 50.17085 20.33086 5876 ft 250 kts 203°
2026-04-30 12:16 50.15696 20.31581 5612 ft 241 kts 233°
2026-04-30 12:16 50.14934 20.29344 5442 ft 230 kts 255°
2026-04-30 12:16 50.14537 20.26928 5320 ft 231 kts 259°
2026-04-30 12:17 50.13832 20.22029 5011 ft 231 kts 260°
2026-04-30 12:17 50.13488 20.19588 4817 ft 231 kts 260°
2026-04-30 12:17 50.13148 20.17153 4591 ft 228 kts 261°
2026-04-30 12:18 50.12814 20.14755 4393 ft 224 kts 259°
2026-04-30 12:18 50.12487 20.12405 4191 ft 219 kts 260°
2026-04-30 12:18 50.12168 20.10122 4052 ft 211 kts 262°
2026-04-30 12:18 50.11871 20.08000 4069 ft 191 kts 262°
2026-04-30 12:19 50.11599 20.06049 3962 ft 179 kts 261°
2026-04-30 12:19 50.11339 20.04167 3908 ft 178 kts 261°
2026-04-30 12:19 50.11083 20.02317 3752 ft 176 kts 261°
2026-04-30 12:19 50.10825 20.00457 3497 ft 175 kts 262°
2026-04-30 12:20 50.10575 19.98659 3271 ft 164 kts 263°
2026-04-30 12:20 50.10343 19.96989 3052 ft 153 kts 262°
2026-04-30 12:20 50.10123 19.95404 2875 ft 148 kts 262°
2026-04-30 12:20 50.09907 19.93833 2669 ft 148 kts 261°
2026-04-30 12:21 50.09688 19.92272 2508 ft 148 kts 261°
2026-04-30 12:21 50.09472 19.90718 2261 ft 146 kts 262°
2026-04-30 12:21 50.09254 19.89168 2059 ft 147 kts 263°
2026-04-30 12:21 50.09043 19.87628 1842 ft 143 kts 263°
2026-04-30 12:22 50.08834 19.86101 1599 ft 145 kts 263°
2026-04-30 12:22 50.08620 19.84558 1431 ft 146 kts 261°
2026-04-30 12:22 50.08393 19.82996 1235 ft 151 kts 260°
2026-04-30 12:22 50.08175 19.81365 1056 ft 157 kts 259°
2026-04-30 12:23 50.07945 19.79748 836 ft 147 kts 261°
2026-04-30 12:23 50.07756 19.78341 803 ft 114 kts 257°
2026-04-30 12:23 50.07642 19.77522 802 ft 43 kts 257°
2026-04-30 12:23 50.07599 19.77228 804 ft 16 kts 257°
2026-04-30 12:24 50.07573 19.77048 805 ft 17 kts 257°
2026-04-30 12:24 50.07544 19.76884 805 ft 16 kts 237°
2026-04-30 12:24 50.07441 19.76859 803 ft 16 kts 167°
2026-04-30 12:24 50.07333 19.76898 802 ft 10 kts 159°
2026-04-30 12:25 50.07312 19.76997 802 ft 11 kts 82°
2026-04-30 12:25 50.07330 19.77124 802 ft 13 kts 78°
2026-04-30 12:25 50.07351 19.77272 802 ft 15 kts 77°
2026-04-30 12:25 50.07375 19.77443 802 ft 17 kts 77°
2026-04-30 12:26 50.07401 19.77629 802 ft 19 kts 78°
2026-04-30 12:26 50.07430 19.77837 802 ft 21 kts 78°
2026-04-30 12:26 50.07462 19.78063 802 ft 22 kts 77°
2026-04-30 12:26 50.07497 19.78306 802 ft 24 kts 79°
2026-04-30 12:27 50.07531 19.78567 802 ft 25 kts 78°
2026-04-30 12:27 50.07569 19.78841 802 ft 27 kts 78°
2026-04-30 12:27 50.07609 19.79130 802 ft 28 kts 77°
2026-04-30 12:27 50.07637 19.79330 802 ft 29 kts 78°
2026-04-30 12:28 50.07680 19.79638 802 ft 20 kts 77°
2026-04-30 12:28 50.07659 19.79695 802 ft 6 kts 167°
2026-04-30 12:28 50.07613 19.79712 802 ft 8 kts 167°
2026-04-30 12:28 50.07552 19.79732 802 ft 10 kts 169°
2026-04-30 12:29 50.07478 19.79755 802 ft 12 kts 168°
2026-04-30 12:29 50.07396 19.79783 802 ft 11 kts 155°
2026-04-30 12:29 50.07379 19.79889 802 ft 12 kts 78°
2026-04-30 12:29 50.07437 19.79955 802 ft 12 kts 355°
2026-04-30 12:30 50.07503 19.79977 802 ft 10 kts 56°
2026-04-30 12:30 50.07525 19.80091 802 ft 11 kts 77°
2026-04-30 12:30 50.07543 19.80214 802 ft 9 kts 77°
2026-04-30 12:30 50.07546 19.80234 802 ft 3 kts 77°
2026-04-30 12:31 50.07540 19.80259 802 ft 3 kts 139°
2026-04-30 12:31 50.07519 19.80266 802 ft 4 kts 168°
2026-04-30 12:31 50.07501 19.80272 802 ft 1 kts 168°
2026-04-30 12:31 50.07500 19.80273 802 ft 0 kts 168°